GW2457 Weather Reports


Display with metric or nautical units.
time (UTC)temp
F
wind
direction
speed
MPH
gust
MPH
rain 1hr
in
rain 24hr
in
rain mn
in
humidity
%
barometer
mb
20260508053055 55 95 2.0 3.0 0.00 0.00 0.00 22 1017.7
20260508051556 55 89 2.0 4.0 0.00 0.00 0.00 21 1017.8
20260508050057 55 97 2.0 3.0 0.00 0.00 0.00 21 1017.8
20260508044603 55 109 1.0 2.0 0.00 0.00 0.00 22 1017.8
20260508041600 58 132 0.0 1.0 0.00 0.00 0.00 19 1017.8
20260508040059 60 76 1.0 2.0 0.00 0.00 0.00 16 1017.7
20260508034558 60 75 2.0 3.0 0.00 0.00 0.00 17 1017.6
20260508033055 60 81 3.0 4.0 0.00 0.00 0.00 19 1017.3
20260508031559 60 51 2.0 4.0 0.00 0.00 0.00 20 1017.1
20260508030116 60 90 1.0 3.0 0.00 0.00 0.00 20 1017.0
20260508024602 61 76 1.0 2.0 0.00 0.00 0.00 20 1016.8
20260508023100 62 0 0.0 0.0 0.00 0.00 0.00 22 1016.5
20260508021600 64 0 0.0 0.0 0.00 0.00 0.00 19 1016.4
20260508020057 67 0 0.0 2.0 0.00 0.00 0.00 15 1016.2
20260508014558 70 212 1.0 4.0 0.00 0.00 0.00 14 1016.0
20260508013055 71 188 3.0 8.0 0.00 0.00 0.00 12 1015.8
20260508011555 73 227 2.0 5.0 0.00 0.00 0.00 12 1015.7
20260508010053 73 239 1.0 5.0 0.00 0.00 0.00 11 1015.6
20260508004555 74 244 1.0 3.0 0.00 0.00 0.00 12 1015.6
20260508003100 73 271 1.0 8.0 0.00 0.00 0.00 11 1015.6
20260508001558 74 269 2.0 6.0 0.00 0.00 0.00 11 1015.6
20260508000053 73 279 1.0 6.0 0.00 0.00 0.00 10 1015.8
20260507234555 73 347 1.0 6.0 0.00 0.00 0.00 11 1015.9
20260507233056 74 321 2.0 7.0 0.00 0.00 0.00 10 1016.0
20260507231552 73 185 3.0 8.0 0.00 0.00 0.00 11 1016.1
20260507230055 73 135 4.0 9.0 0.00 0.00 0.00 11 1016.2
20260507224611 72 225 0.0 8.0 0.00 0.01 0.00 12 1016.3
20260507223059 71 308 3.0 8.0 0.00 0.01 0.00 14 1016.4
20260507221553 71 244 2.0 7.0 0.00 0.01 0.00 12 1016.5
20260507220054 71 249 4.0 8.0 0.00 0.01 0.00 13 1016.7
20260507214603 70 209 2.0 7.0 0.00 0.01 0.00 12 1017.1
20260507213054 69 97 1.0 10.0 0.00 0.01 0.00 13 1017.6
20260507211620 70 237 4.0 7.0 0.00 0.01 0.00 15 1017.8
20260507210056 68 330 4.0 9.0 0.00 0.01 0.00 16 1018.1
20260507204601 68 289 4.0 9.0 0.00 0.01 0.00 17 1018.4
20260507203054 67 203 4.0 7.0 0.00 0.01 0.00 17 1018.6
20260507201610 67 264 2.0 9.0 0.00 0.01 0.00 17 1018.7
20260507194558 64 245 2.0 9.0 0.00 0.01 0.00 19 1019.2
20260507193055 64 309 1.0 6.0 0.00 0.01 0.00 21 1019.5
20260507191554 62 349 3.0 8.0 0.00 0.01 0.00 24 1019.7
20260507190053 63 231 3.0 8.0 0.00 0.01 0.00 23 1019.9
20260507184555 61 321 2.0 6.0 0.00 0.01 0.00 26 1020.1
20260507183055 61 263 2.0 9.0 0.00 0.01 0.00 26 1020.4
20260507181556 60 122 2.0 9.0 0.00 0.01 0.00 26 1020.6
20260507180054 59 15 4.0 14.0 0.00 0.01 0.00 25 1020.8
20260507174556 59 310 4.0 10.0 0.00 0.01 0.00 27 1021.0
20260507173101 58 299 4.0 11.0 0.00 0.01 0.00 27 1021.3
20260507171557 59 250 4.0 9.0 0.00 0.01 0.00 28 1021.4
20260507170056 58 250 5.0 8.0 0.00 0.01 0.00 29 1021.7
20260507164556 57 261 3.0 8.0 0.00 0.01 0.00 37 1021.7
20260507163057 56 317 3.0 7.0 0.00 0.01 0.00 40 1022.0
20260507161559 55 323 2.0 6.0 0.00 0.01 0.00 36 1022.2
20260507160053 54 344 3.0 5.0 0.00 0.01 0.00 35 1022.1
20260507154555 53 270 2.0 3.0 0.00 0.01 0.00 35 1022.2
20260507153100 53 253 0.0 3.0 0.00 0.01 0.00 43 1022.3
20260507151556 52 201 1.0 3.0 0.00 0.01 0.00 39 1022.4
20260507150056 51 248 0.0 3.0 0.00 0.01 0.00 41 1022.4
20260507144555 50 0 0.0 2.0 0.00 0.01 0.00 45 1022.4
20260507143055 48 224 0.0 2.0 0.00 0.01 0.00 46 1022.5
20260507141557 46 0 0.0 2.0 0.00 0.01 0.00 50 1022.4
20260507140109 45 265 0.0 3.0 0.00 0.01 0.00 46 1022.4
20260507133058 43 0 0.0 0.0 0.00 0.01 0.00 45 1022.2
20260507131559 38 93 1.0 2.0 0.00 0.01 0.00 52 1022.1
20260507130100 36 0 0.0 2.0 0.00 0.01 0.00 53 1022.0
20260507124556 36 85 0.0 2.0 0.00 0.01 0.00 53 1022.0
20260507123057 36 93 2.0 2.0 0.00 0.01 0.00 51 1021.8
20260507121556 36 0 0.0 2.0 0.00 0.01 0.00 52 1021.7
20260507120056 38 0 1.0 2.0 0.00 0.01 0.00 47 1021.6
20260507114556 37 89 1.0 3.0 0.00 0.01 0.00 49 1021.7
20260507113053 37 92 0.0 2.0 0.00 0.01 0.00 50 1021.6
20260507111554 37 0 0.0 0.0 0.00 0.01 0.00 49 1021.6
20260507110058 37 0 0.0 0.0 0.00 0.01 0.00 49 1021.6
20260507104555 38 0 0.0 0.0 0.00 0.01 0.00 46 1021.6
20260507103055 39 0 0.0 1.0 0.00 0.01 0.00 42 1021.6
20260507101606 39 50 0.0 0.0 0.00 0.01 0.00 42 1021.5
20260507100053 39 0 0.0 0.0 0.00 0.01 0.00 42 1021.5
20260507094600 39 0 0.0 0.0 0.00 0.01 0.00 43 1021.6
20260507093053 40 0 0.0 2.0 0.00 0.01 0.00 41 1021.5
20260507091603 41 87 0.0 3.0 0.00 0.01 0.00 40 1021.6
20260507090111 40 0 0.0 3.0 0.00 0.01 0.00 41 1021.7
20260507084557 41 102 1.0 2.0 0.00 0.01 0.00 40 1021.5
20260507083102 43 0 0.0 3.0 0.00 0.01 0.00 36 1021.4
20260507081558 45 82 1.0 3.0 0.00 0.01 0.00 33 1021.4
20260507080056 45 0 0.0 2.0 0.00 0.01 0.00 34 1021.4
20260507074555 46 0 0.0 4.0 0.00 0.01 0.00 31 1021.4
20260507073103 47 47 2.0 3.0 0.00 0.01 0.00 31 1021.3
20260507071559 48 360 2.0 8.0 0.00 0.01 0.00 30 1021.1
20260507070137 48 56 3.0 6.0 0.00 0.01 0.00 30 1021.1
20260507064556 49 50 2.0 7.0 0.00 0.01 0.00 28 1021.0
20260507063101 50 47 2.0 4.0 0.00 0.01 0.00 27 1021.0
20260507061555 50 326 2.0 6.0 0.00 0.01 0.00 27 1020.9
20260507060100 50 23 2.0 8.0 0.00 0.01 0.00 28 1020.9
20260507054615 51 28 2.0 6.0 0.00 0.01 0.01 29 1020.8